Retour au catalogue

MSG 2 DEB

BAFFLE COVER

LostGEO
NORAD 29676·DEBRIS·🇪🇺 EU

Lancé Dec 21, 2005 depuis Guiana Space Centre

Loading…

TLE

VieillissantSource: Space-Track

Époque: Aug 6, 2026, 18:08 UTC

1 29676U 05049F   26218.75588501 -.00000017  00000-0  00000-0 0  9995
2 29676  12.7062  27.4722 0005825  38.8071 308.5763  1.02258072 74540

Suivez MSG 2 DEB en temps réel avec AllMySat

Download on the App Store